[[{"header":{"parameterUnit":"m.s-1","parameterCategory":2,"la1":30.2991,"la2":30.254,"lo1":-89.0895,"lo2":-89.0444,"dy":0.0017,"dx":0.0017,"nx":28,"ny":28,"refTime":"2025-04-05T21:00:00:Z","depth":"0","parameterNumber":2,"parameterNumberName":"U-component_of_CURRENTS"},"data":[0,0,0,0,0,0,0,0,0,0,0,0,0,0,0,0,0,0,0,0,0,0,0,0,0,0,0,0,0,0,0,0,0,0,0,0,0,0,0,0,0,0,0,0,0,0,0,0,0,0,0,0,0,0,0,0,0,0,0.3193,0.3194,0,0.3233,0.3234,0.3234,0.3225,0.3225,0.3224,0.3224,0.3211,0.3211,0.3211,0,0,0,0,0,0,0,0,0,0,0,0,0,0.3109,0.3111,0.3193,0.3194,0.3195,0.3233,0.3234,0.3234,0.3225,0.3225,0.3224,0.3224,0.3211,0.3211,0.3211,0,0,0,0,0,0,0,0,0,0,0,0,0,0.3144,0.3111,0.3193,0.3198,0.3199,0.3233,0.3234,0.3234,0.3225,0.3225,0.3224,0.3223,0.3211,0.3211,0.3211,0.3223,0,0,0.3211,0.3211,0,0,0,0,0,0,0,0,0.3142,0.3146,0.3196,0.3198,0.3199,0.3227,0.32,0.3229,0.3225,0.3211,0.3224,0.3223,0.3214,0.3214,0.3218,0.3222,0.3222,0.3211,0.3211,0.3211,0.3211,0,0,0,0,0,0,0,0.3139,0.3145,0.3205,0.3197,0.3199,0.3199,0.3203,0.3205,0.3211,0.3212,0.3213,0.3224,0.3214,0.3218,0.3218,0.3222,0.3211,0.3211,0.3211,0.3211,0.3276,0.3277,0,0,0,0,0,0,0.3143,0.3143,0.3204,0.3207,0.3173,0.3201,0.3205,0.3215,0.3213,0.3213,0.3224,0.3223,0.3218,0.3218,0.3217,0.3263,0.3211,0.3211,0.3211,0.3274,0.3276,0.3278,0,0,0,0,0,0,0.3141,0.3148,0.3202,0.3178,0.3186,0.3204,0.3215,0.3217,0.3227,0.3223,0.3221,0.3234,0.3218,0.3217,0.3235,0.3261,0.3211,0.3211,0.3272,0.3274,0.3277,0.3334,0,0,0,0,0,0,0.3138,0.3147,0.3153,0.3179,0.3187,0.3231,0.3216,0.3218,0.3236,0.3235,0.3231,0.3228,0.3217,0.3235,0.3235,0.326,0.3211,0.327,0.3273,0.3276,0.333,0.3338,0.3346,0,0,0,0,0,0.3135,0.3147,0.3153,0.316,0.3196,0.3233,0.3237,0.3244,0.3237,0.3249,0.325,0.3229,0.3255,0.3236,0.3236,0.3262,0.3268,0.3272,0.3276,0.3327,0.3337,0.3345,0,0,0,0,0,0,0.3108,0.3148,0.3155,0.3176,0.3207,0.3233,0.3245,0.3252,0.3262,0.3259,0.3247,0.3247,0.3274,0.3263,0.3243,0.3292,0.326,0.3263,0.3299,0.3308,0.3315,0.3329,0.3211,0,0,0,0,0,0.3108,0.3129,0.3167,0.3184,0.3202,0.3225,0.3239,0.325,0.3266,0.327,0.3268,0.3273,0.329,0.3294,0.3302,0.3325,0.3338,0.3344,0.3351,0.3358,0.337,0.3416,0.3429,0.329,0.329,0.329,0,0,0.31,0.3127,0.3136,0.3181,0.3202,0.3237,0.3231,0.3262,0.329,0.3267,0.3294,0.3299,0.3304,0.3334,0.3345,0.3326,0.3408,0.3363,0.3368,0.3377,0.3421,0.3435,0.3447,0.3293,0.3292,0.3292,0,0,0.3105,0.3124,0.3147,0.3179,0.3224,0.3245,0.3258,0.3292,0.3306,0.3337,0.3335,0.3361,0.3371,0.3391,0.34,0.3457,0.3449,0.3455,0.35,0.3545,0.3556,0.3567,0.3612,0.3626,0.3456,0.3456,0.3456,0,0.3093,0.3129,0.3159,0.3196,0.3225,0.3252,0.3287,0.3313,0.3347,0.337,0.3351,0.3405,0.3403,0.3461,0.3481,0.3474,0.3497,0.3462,0.3555,0.3565,0.3575,0.3619,0.3634,0.3459,0.3459,0.3458,0.3458,0,0.3121,0.3151,0.317,0.3227,0.3263,0.3296,0.3346,0.3376,0.3392,0.342,0.3476,0.3484,0.3517,0.3524,0.3517,0.3592,0.3586,0.3561,0.353,0.3592,0.3635,0.3649,0.3464,0.3462,0.3461,0.3461,0,0,0.3087,0.3171,0.3177,0.3207,0.3282,0.3312,0.3373,0.3437,0.3479,0.351,0.357,0.3605,0.3613,0.3626,0.3628,0.3665,0.3752,0.3644,0.3645,0.3687,0.3859,0.387,0.3887,0.3741,0.3744,0.3746,0.3865,0,0.3097,0.3162,0.3207,0.3266,0.3304,0.3358,0.3415,0.3479,0.3525,0.3588,0.3626,0.3677,0.3653,0.3673,0.3711,0.3748,0.3791,0.3723,0.3795,0.3797,0.3797,0.3904,0.3863,0.3968,0.3879,0.3881,0.3883,0,0.3105,0.3152,0.3208,0.3293,0.3315,0.3352,0.3446,0.35,0.3605,0.3648,0.3714,0.3746,0.3829,0.3783,0.3887,0.3845,0.3862,0.3878,0.3883,0.3883,0.3835,0.389,0.3997,0.3954,0.3905,0.3903,0.3901,0,0.3063,0.3149,0.3189,0.3217,0.3319,0.3351,0.3404,0.3508,0.3581,0.3687,0.3758,0.3839,0.3903,0.3938,0.3989,0.3942,0.4099,0.4033,0.4061,0.4061,0.4037,0.4032,0.4109,0.4104,0.4103,0.4103,0.4103,0,0.3053,0.3082,0.3165,0.3185,0.3241,0.3321,0.3393,0.3466,0.3598,0.3686,0.3779,0.3874,0.3946,0.4042,0.4045,0.4128,0.415,0.4106,0.4108,0.4057,0.4052,0.4019,0.3965,0.4108,0.4107,0.4106,0.4105,0,0.2996,0.3051,0.3094,0.3188,0.3218,0.3251,0.3386,0.3444,0.3581,0.3704,0.3751,0.3942,0.4069,0.4146,0.4234,0.4221,0.4188,0.4284,0.4229,0.4223,0.4174,0.4123,0.3999,0.3869,0.4332,0.4333,0.4334,0,0.2971,0.2987,0.3072,0.3093,0.3127,0.3198,0.3252,0.3407,0.3484,0.3732,0.379,0.3994,0.4125,0.4311,0.4346,0.4408,0.4244,0.4367,0.4263,0.4209,0.4153,0.3929,0.3809,0.4258,0.4258,0.4259,0.4259,0,0.2917,0.2938,0.2974,0.3023,0.3067,0.3127,0.3217,0.329,0.3471,0.362,0.381,0.3954,0.4197,0.4291,0.4416,0.4425,0.4207,0.4373,0.4334,0.4135,0.3878,0.3741,0.414,0.4261,0.4261,0.4261,0.426,0.426,0.2858,0.2862,0.2903,0.2939,0.2989,0.3026,0.3042,0.3172,0.3309,0.3495,0.3706,0.39,0.4191,0.4392,0.4369,0.438,0.4225,0.4291,0.4247,0.4034,0.3862,0.4276,0.438,0.438,0.4381,0.4381,0.4381,0,0.2778,0.2791,0.2821,0.2852,0.2855,0.2916,0.2994,0.3003,0.3106,0.3361,0.3537,0.3881,0.4084,0.4258,0.4429,0.4312,0.4047,0.4197,0.3892,0.3785,0.4216,0.4173,0.4216,0.4216,0.4216,0.4216,0.4216,0.4216,0.2736,0.2719,0.2734,0.2704,0.2718,0.2686,0.2694,0.275,0.2897,0.3121,0.3334,0.3563,0.4062,0.4446,0.4463,0.4313,0.3932,0.3787,0.3667,0.4049,0.4053,0.4057,0.4007,0.4014,0.4013,0.3116,0.311,0.3106]},{"header":{"parameterUnit":"m.s-1","parameterCategory":2,"la1":30.2991,"la2":30.254,"lo1":-89.0895,"lo2":-89.0444,"dy":0.0017,"dx":0.0017,"nx":28,"ny":28,"refTime":"2025-04-05T21:00:00:Z","depth":"0","parameterNumber":3,"parameterNumberName":"V-component_of_CURRENTS"},"data":[0,0,0,0,0,0,0,0,0,0,0,0,0,0,0,0,0,0,0,0,0,0,0,0,0,0,0,0,0,0,0,0,0,0,0,0,0,0,0,0,0,0,0,0,0,0,0,0,0,0,0,0,0,0,0,0,0,0,-0.0038,-0.0038,0,-0.0111,-0.0112,-0.0113,-0.0168,-0.0169,-0.0169,-0.0169,-0.026,-0.0263,-0.0265,0,0,0,0,0,0,0,0,0,0,0,0,0,-0.003,-0.0029,-0.0038,-0.0038,-0.0039,-0.0111,-0.0112,-0.0114,-0.0168,-0.0169,-0.0169,-0.0169,-0.026,-0.0262,-0.0265,0,0,0,0,0,0,0,0,0,0,0,0,0,-0.0063,-0.0029,-0.0038,-0.0073,-0.0077,-0.0111,-0.0112,-0.0114,-0.0168,-0.0169,-0.0169,-0.0169,-0.0259,-0.0262,-0.0265,-0.0278,0,0,-0.0275,-0.0277,0,0,0,0,0,0,0,0,-0.0061,-0.0064,-0.0067,-0.0071,-0.0075,-0.0129,-0.0143,-0.0169,-0.0168,-0.0136,-0.0169,-0.0169,-0.0216,-0.0223,-0.0239,-0.0282,-0.0286,-0.0276,-0.0278,-0.0279,-0.028,0,0,0,0,0,0,0,-0.0059,-0.0061,-0.007,-0.0068,-0.0073,-0.0114,-0.0119,-0.0149,-0.0175,-0.0139,-0.0143,-0.0147,-0.0219,-0.0236,-0.0242,-0.0288,-0.0276,-0.0278,-0.0281,-0.0282,-0.0343,-0.0343,0,0,0,0,0,0,-0.0039,-0.0059,-0.0067,-0.0071,-0.0066,-0.0114,-0.0119,-0.0113,-0.0175,-0.0184,-0.0146,-0.0149,-0.023,-0.0238,-0.0245,-0.0245,-0.0279,-0.0282,-0.0284,-0.0344,-0.0343,-0.0343,0,0,0,0,0,0,-0.0039,-0.0039,-0.0064,-0.0066,-0.0071,-0.0112,-0.0106,-0.0114,-0.0127,-0.018,-0.0189,-0.0149,-0.0231,-0.0241,-0.0263,-0.025,-0.0284,-0.0287,-0.0344,-0.0344,-0.0343,-0.0257,0,0,0,0,0,0,-0.0038,-0.0038,-0.003,-0.0064,-0.007,-0.0069,-0.0106,-0.0115,-0.0128,-0.0132,-0.0185,-0.0195,-0.0232,-0.0257,-0.0266,-0.0255,-0.0289,-0.0345,-0.0344,-0.0343,-0.0261,-0.0254,-0.0248,0,0,0,0,0,-0.0037,-0.0014,-0.0029,-0.003,-0.0056,-0.0068,-0.0075,-0.0109,-0.0127,-0.0124,-0.0162,-0.0193,-0.026,-0.0259,-0.027,-0.026,-0.0345,-0.0344,-0.0343,-0.0263,-0.0255,-0.0248,0,0,0,0,0,0,-0.0004,-0.0018,-0.0035,-0.0017,-0.0037,-0.0076,-0.0076,-0.01,-0.0129,-0.0133,-0.0187,-0.0198,-0.0215,-0.0249,-0.0247,-0.0277,-0.0308,-0.0309,-0.0244,-0.0237,-0.0231,-0.0205,-0.0292,0,0,0,0,0,0.0008,0.002,-0.0005,0.0007,0.0002,-0.0037,-0.0047,-0.0067,-0.0096,-0.011,-0.0148,-0.0189,-0.0221,-0.0236,-0.0271,-0.0282,-0.0321,-0.0285,-0.0278,-0.0273,-0.0259,-0.0312,-0.031,-0.034,-0.034,-0.034,0,0,0.0023,0.0017,0.0022,0.0014,-0.0006,0.0003,-0.0044,-0.0048,-0.0044,-0.0114,-0.0122,-0.0168,-0.022,-0.0236,-0.0246,-0.026,-0.0283,-0.0272,-0.0266,-0.0256,-0.0311,-0.0308,-0.0306,-0.034,-0.034,-0.034,0,0,0.0066,0.0056,0.0081,0.0073,0.0057,0.0036,0.0041,0.0009,-0.0009,-0.0024,-0.0075,-0.0108,-0.0157,-0.0191,-0.0215,-0.0195,-0.025,-0.0209,-0.0155,-0.0206,-0.0204,-0.0202,-0.0241,-0.0243,-0.0204,-0.0204,-0.0204,0,0.0084,0.0116,0.0085,0.0107,0.011,0.0059,0.0088,0.0063,0.0026,0.0018,-0.0012,-0.0088,-0.0134,-0.0154,-0.015,-0.0179,-0.0215,-0.0176,-0.0197,-0.0196,-0.0196,-0.0236,-0.024,-0.02,-0.02,-0.0201,-0.0201,0,0.0148,0.0169,0.0184,0.0196,0.0193,0.021,0.0179,0.0171,0.0138,0.0107,0.0075,0.0004,-0.0039,-0.0064,-0.0101,-0.0119,-0.0147,-0.0183,-0.0211,-0.0188,-0.0232,-0.0237,-0.0194,-0.0195,-0.0197,-0.0198,0,0,0.0198,0.0226,0.0231,0.0256,0.0246,0.0255,0.0261,0.0255,0.0265,0.0203,0.0205,0.013,0.0081,0.0051,-0.001,-0.0056,-0.009,-0.0111,-0.0115,-0.014,-0.0196,-0.0219,-0.0228,-0.0134,-0.0134,-0.0135,-0.0225,0,0.0258,0.0328,0.0318,0.0377,0.0412,0.0375,0.0389,0.037,0.0335,0.0321,0.0234,0.0208,0.0127,0.0109,0.0048,-0.0054,-0.0102,-0.0062,-0.0223,-0.0227,-0.0244,-0.0234,-0.0218,-0.0297,-0.0231,-0.0232,-0.0233,0,0.0325,0.0365,0.0438,0.0483,0.0494,0.0512,0.0529,0.0535,0.0492,0.046,0.0404,0.0336,0.0263,0.0188,0.0026,0.0054,-0.0057,-0.0145,-0.0151,-0.0204,-0.0261,-0.0313,-0.0311,-0.0533,-0.0242,-0.0241,-0.0241,0,0.0386,0.0449,0.0515,0.0529,0.0565,0.0585,0.0596,0.0575,0.0604,0.0546,0.0554,0.0437,0.0394,0.0236,0.0054,0.0039,-0.0128,-0.0176,-0.0301,-0.0304,-0.0336,-0.0341,-0.0559,-0.0289,-0.0288,-0.0288,-0.0288,0,0.046,0.0511,0.0549,0.0586,0.0668,0.0656,0.0725,0.0709,0.0714,0.0758,0.0631,0.0641,0.0404,0.0283,0.0096,-0.0113,-0.0102,-0.0284,-0.0329,-0.0306,-0.0306,-0.0539,-0.0682,-0.0292,-0.0291,-0.029,-0.029,0,0.052,0.0543,0.0624,0.0677,0.07,0.0754,0.0828,0.0881,0.0856,0.0909,0.0904,0.0798,0.0634,0.0395,0.0142,-0.0042,-0.0389,-0.0327,-0.0277,-0.0313,-0.0638,-0.0775,-0.1062,-0.1173,-0.0479,-0.048,-0.0481,0,0.0559,0.0607,0.0694,0.0752,0.0779,0.086,0.0928,0.0947,0.1015,0.1017,0.1062,0.0929,0.0871,0.0489,0.013,-0.0201,-0.0429,-0.0411,-0.0444,-0.0651,-0.0837,-0.0945,-0.1025,-0.0454,-0.0455,-0.0455,-0.0456,0,0.0633,0.0656,0.0726,0.0849,0.093,0.1039,0.1134,0.1217,0.1247,0.1299,0.1345,0.1303,0.0931,0.062,0.0145,-0.0112,-0.0589,-0.0432,-0.0668,-0.0852,-0.0964,-0.1091,-0.0397,-0.046,-0.046,-0.046,-0.0459,-0.0459,0.0683,0.0746,0.0836,0.0957,0.1059,0.1199,0.1313,0.1427,0.1562,0.1672,0.1597,0.1601,0.1099,0.0463,0.0064,-0.0626,-0.065,-0.0809,-0.096,-0.1051,-0.1161,-0.0468,-0.0569,-0.0569,-0.057,-0.057,-0.057,0,0.0751,0.0826,0.0942,0.1088,0.1219,0.1259,0.1447,0.1583,0.1766,0.1882,0.1941,0.173,0.1098,0.0434,-0.0493,-0.1016,-0.1234,-0.1321,-0.1479,-0.1537,-0.0931,-0.093,-0.1087,-0.1087,-0.1086,-0.1086,-0.1086,-0.1086,0.0787,0.0909,0.0974,0.1198,0.1309,0.1506,0.1626,0.1824,0.1973,0.2164,0.2216,0.2211,0.1726,-0.0055,-0.1242,-0.1535,-0.1923,-0.2031,-0.2222,-0.1814,-0.1777,-0.1742,-0.1773,-0.2104,-0.2106,-0.2739,-0.2745,-0.2751]}],[{"header":{"parameterUnit":"m.s-1","parameterCategory":2,"la1":30.2991,"la2":30.254,"lo1":-89.0895,"lo2":-89.0444,"dy":0.0017,"dx":0.0017,"nx":28,"ny":28,"refTime":"2025-04-05T21:00:00:Z","depth":"2","parameterNumber":2,"parameterNumberName":"U-component_of_CURRENTS"},"data":[0,0,0,0,0,0,0,0,0,0,0,0,0,0,0,0,0,0,0,0,0,0,0,0,0,0,0,0,0,0,0,0,0,0,0,0,0,0,0,0,0,0,0,0,0,0,0,0,0,0,0,0,0,0,0,0,0,0,0.3052,0.3053,0,0.3093,0.3093,0.3093,0.3089,0.3089,0.3088,0.3088,0.3082,0.3082,0.3082,0,0,0,0,0,0,0,0,0,0,0,0,0,0.2971,0.2972,0.3052,0.3053,0.3054,0.3093,0.3093,0.3093,0.3089,0.3089,0.3088,0.3088,0.3082,0.3082,0.3082,0,0,0,0,0,0,0,0,0,0,0,0,0,0.3004,0.2972,0.3052,0.3059,0.3061,0.3093,0.3093,0.3093,0.3089,0.3089,0.3088,0.3088,0.3082,0.3082,0.3082,0.3092,0,0,0.3083,0.3083,0,0,0,0,0,0,0,0,0.3003,0.3007,0.3057,0.3059,0.306,0.3089,0.3062,0.3092,0.3089,0.3074,0.3088,0.3088,0.3083,0.3083,0.3087,0.3091,0.3091,0.3083,0.3083,0.3083,0.3083,0,0,0,0,0,0,0,0.3,0.3005,0.3064,0.3058,0.306,0.3061,0.3064,0.3068,0.3077,0.3076,0.3076,0.3087,0.3082,0.3086,0.3086,0.3091,0.3083,0.3083,0.3083,0.3083,0.315,0.3151,0,0,0,0,0,0,0.3004,0.3003,0.3063,0.3066,0.3034,0.3063,0.3067,0.3077,0.3078,0.3079,0.3087,0.3087,0.3086,0.3086,0.3086,0.3135,0.3083,0.3083,0.3083,0.3148,0.315,0.3152,0,0,0,0,0,0,0.3002,0.3009,0.3062,0.3038,0.3046,0.3065,0.3076,0.3078,0.3091,0.3088,0.3087,0.3099,0.3086,0.3086,0.3106,0.3133,0.3083,0.3083,0.3146,0.3149,0.3151,0.3209,0,0,0,0,0,0,0.2999,0.3007,0.3015,0.3039,0.3047,0.309,0.3077,0.3079,0.31,0.3099,0.3098,0.3096,0.3086,0.3106,0.3106,0.3132,0.3083,0.3144,0.3147,0.315,0.3205,0.3213,0.322,0,0,0,0,0,0.2996,0.3008,0.3015,0.3022,0.3057,0.3092,0.3096,0.3105,0.3101,0.3113,0.3116,0.3097,0.3126,0.3107,0.3107,0.3134,0.3142,0.3146,0.315,0.3201,0.3211,0.322,0,0,0,0,0,0,0.2972,0.301,0.3017,0.3039,0.3069,0.3093,0.3106,0.3114,0.3127,0.3126,0.3115,0.3115,0.3145,0.3134,0.3114,0.3165,0.3133,0.3136,0.3172,0.3181,0.3188,0.3201,0.3083,0,0,0,0,0,0.2973,0.2993,0.3029,0.3048,0.3065,0.3088,0.3103,0.3114,0.313,0.3136,0.3136,0.3143,0.3161,0.3166,0.3175,0.3198,0.321,0.3218,0.3226,0.3232,0.3244,0.3288,0.33,0.3164,0.3164,0.3164,0,0,0.2966,0.2993,0.3002,0.3045,0.3066,0.3099,0.3095,0.3126,0.3154,0.3133,0.3163,0.3169,0.3174,0.3206,0.3218,0.3199,0.328,0.3237,0.3242,0.3251,0.3293,0.3306,0.3318,0.3167,0.3166,0.3166,0,0,0.2972,0.2992,0.3015,0.3046,0.3091,0.311,0.3124,0.3158,0.3173,0.3206,0.3205,0.3232,0.3244,0.3263,0.3272,0.3329,0.3321,0.3329,0.3374,0.3416,0.3428,0.3438,0.3481,0.3495,0.333,0.333,0.333,0,0.2964,0.2998,0.3027,0.3063,0.3091,0.3119,0.3153,0.3179,0.3214,0.3238,0.3222,0.3276,0.3275,0.3332,0.3353,0.3346,0.3368,0.3336,0.3426,0.3437,0.3446,0.3488,0.3502,0.3333,0.3333,0.3332,0.3332,0,0.2991,0.3021,0.304,0.3095,0.3131,0.3164,0.3211,0.3242,0.3261,0.3289,0.3345,0.3354,0.3388,0.3395,0.339,0.3463,0.3457,0.3432,0.3401,0.3463,0.3503,0.3517,0.3338,0.3337,0.3336,0.3335,0,0,0.2961,0.3042,0.3048,0.3078,0.315,0.3179,0.324,0.3302,0.3344,0.3377,0.3436,0.3472,0.3483,0.3496,0.3498,0.3534,0.362,0.3515,0.3516,0.3555,0.3723,0.3725,0.374,0.3609,0.3612,0.3613,0.3728,0,0.2972,0.3034,0.3078,0.3136,0.3172,0.3226,0.3281,0.3344,0.339,0.3453,0.3491,0.3543,0.3521,0.3543,0.358,0.3615,0.3657,0.3592,0.3659,0.3662,0.3654,0.3756,0.3462,0.354,0.3741,0.3743,0.3745,0,0.2981,0.3026,0.308,0.3163,0.3185,0.3221,0.3313,0.3367,0.3469,0.3512,0.3578,0.3611,0.3693,0.365,0.375,0.371,0.3727,0.3742,0.3746,0.3738,0.369,0.3509,0.3557,0.3767,0.3766,0.3764,0.3762,0,0.294,0.3024,0.3063,0.3091,0.3189,0.3222,0.3275,0.3377,0.3447,0.3554,0.3624,0.3702,0.3766,0.3801,0.385,0.3805,0.3954,0.389,0.3909,0.3909,0.3668,0.3643,0.3958,0.3958,0.3958,0.3958,0.3957,0,0.2932,0.296,0.3042,0.3062,0.3118,0.3196,0.3268,0.3339,0.3468,0.3554,0.3647,0.3737,0.3809,0.3901,0.3903,0.3978,0.4003,0.3953,0.3953,0.3682,0.3659,0.3851,0.3837,0.3962,0.3961,0.396,0.3959,0,0.2877,0.2931,0.2975,0.3066,0.3096,0.3131,0.3264,0.3321,0.3455,0.3575,0.3623,0.3804,0.3925,0.3999,0.4082,0.4066,0.4113,0.4121,0.3814,0.3777,0.4019,0.4007,0.4154,0.4156,0.4157,0.4158,0.4159,0,0.2853,0.287,0.2954,0.2976,0.3011,0.3083,0.3137,0.3288,0.3362,0.3601,0.3656,0.3852,0.3968,0.414,0.4136,0.4182,0.4188,0.3923,0.3787,0.4062,0.4046,0.4032,0.4019,0.3483,0.3478,0.3474,0.3471,0,0.2802,0.2825,0.286,0.291,0.2954,0.3013,0.3102,0.3172,0.3347,0.3486,0.3664,0.3794,0.399,0.3936,0.4035,0.4,0.3893,0.385,0.4218,0.3499,0.3443,0.3423,0.3429,0.3436,0.3439,0.3442,0.3444,0.3445,0.2746,0.2751,0.2792,0.2829,0.2879,0.2913,0.2928,0.3043,0.3169,0.3311,0.3521,0.3605,0.3701,0.3718,0.3641,0.3573,0.3824,0.3623,0.3627,0.3638,0.356,0.3512,0.3503,0.3506,0.351,0.3512,0.3515,0,0.2665,0.2683,0.2712,0.2743,0.274,0.2808,0.288,0.2859,0.2938,0.3106,0.3239,0.3078,0.3124,0.3187,0.3062,0.3117,0.3005,0.2968,0.2768,0.2811,0.2847,0.2718,0.2442,0.2438,0.2434,0.243,0,0,0.2623,0.2605,0.2619,0.2585,0.2605,0.256,0.2565,0.2565,0.2634,0.2653,0.2687,0.2957,0.3122,0.2715,0.2712,0.2542,0.2629,0.245,0.3329,0.3136,0.3165,0.3271,0.3131,0,0,0,0,0]},{"header":{"parameterUnit":"m.s-1","parameterCategory":2,"la1":30.2991,"la2":30.254,"lo1":-89.0895,"lo2":-89.0444,"dy":0.0017,"dx":0.0017,"nx":28,"ny":28,"refTime":"2025-04-05T21:00:00:Z","depth":"2","parameterNumber":3,"parameterNumberName":"V-component_of_CURRENTS"},"data":[0,0,0,0,0,0,0,0,0,0,0,0,0,0,0,0,0,0,0,0,0,0,0,0,0,0,0,0,0,0,0,0,0,0,0,0,0,0,0,0,0,0,0,0,0,0,0,0,0,0,0,0,0,0,0,0,0,0,0.0037,0.0036,0,-0.0034,-0.0035,-0.0036,-0.0089,-0.0089,-0.009,-0.009,-0.0179,-0.0181,-0.0183,0,0,0,0,0,0,0,0,0,0,0,0,0,0.0046,0.0046,0.0037,0.0036,0.0035,-0.0034,-0.0035,-0.0036,-0.0089,-0.0089,-0.009,-0.009,-0.0178,-0.0181,-0.0183,0,0,0,0,0,0,0,0,0,0,0,0,0,0.0013,0.0046,0.0037,0.0003,-0.0001,-0.0034,-0.0035,-0.0037,-0.0089,-0.0089,-0.009,-0.009,-0.0177,-0.018,-0.0184,-0.0196,0,0,-0.0193,-0.0195,0,0,0,0,0,0,0,0,0.0015,0.0013,0.0008,0.0005,0.0001,-0.0051,-0.0065,-0.009,-0.0089,-0.0058,-0.009,-0.009,-0.0136,-0.0143,-0.0158,-0.02,-0.0204,-0.0194,-0.0196,-0.0197,-0.0198,0,0,0,0,0,0,0,0.0018,0.0015,0.0006,0.0008,0.0003,-0.0037,-0.0041,-0.007,-0.0096,-0.0061,-0.0064,-0.0068,-0.0139,-0.0155,-0.0161,-0.0205,-0.0194,-0.0196,-0.0198,-0.02,-0.0261,-0.0261,0,0,0,0,0,0,0.0036,0.0018,0.0009,0.0004,0.001,-0.0036,-0.0041,-0.0036,-0.0096,-0.0104,-0.0068,-0.007,-0.0149,-0.0157,-0.0164,-0.0166,-0.0197,-0.02,-0.0202,-0.0261,-0.0261,-0.0261,0,0,0,0,0,0,0.0037,0.0036,0.0011,0.001,0.0005,-0.0035,-0.0029,-0.0037,-0.005,-0.01,-0.011,-0.0071,-0.015,-0.0159,-0.0181,-0.017,-0.0201,-0.0204,-0.0262,-0.0261,-0.0261,-0.018,0,0,0,0,0,0,0.0037,0.0037,0.0045,0.0012,0.0006,0.0006,-0.0029,-0.0038,-0.0051,-0.0055,-0.0107,-0.0116,-0.0151,-0.0176,-0.0185,-0.0175,-0.0207,-0.0262,-0.0261,-0.0261,-0.0183,-0.0176,-0.0171,0,0,0,0,0,0.0038,0.006,0.0046,0.0044,0.0019,0.0007,-0.0,-0.0033,-0.005,-0.0048,-0.0085,-0.0114,-0.0179,-0.0178,-0.0188,-0.0179,-0.0262,-0.0262,-0.0261,-0.0185,-0.0178,-0.0171,0,0,0,0,0,0,0.0069,0.0056,0.0039,0.0056,0.0037,-0.0001,-0.0001,-0.0025,-0.0053,-0.0057,-0.0109,-0.012,-0.0137,-0.0169,-0.0167,-0.0197,-0.0226,-0.0228,-0.0165,-0.0159,-0.0153,-0.0128,-0.0209,0,0,0,0,0,0.008,0.0091,0.0067,0.0078,0.0074,0.0036,0.0025,0.0006,-0.0022,-0.0035,-0.0072,-0.0112,-0.0143,-0.0158,-0.0191,-0.0203,-0.024,-0.0206,-0.02,-0.0195,-0.0182,-0.0234,-0.0231,-0.0259,-0.0259,-0.0259,0,0,0.0094,0.0088,0.0093,0.0085,0.0065,0.0074,0.0028,0.0024,0.0027,-0.004,-0.0048,-0.0092,-0.0142,-0.0158,-0.0169,-0.0182,-0.0206,-0.0194,-0.0189,-0.0179,-0.0233,-0.023,-0.0228,-0.0258,-0.0258,-0.0258,0,0,0.0135,0.0124,0.0148,0.014,0.0124,0.0104,0.0109,0.0077,0.0059,0.0045,-0.0004,-0.0037,-0.0084,-0.0116,-0.014,-0.0122,-0.0175,-0.0136,-0.0084,-0.0135,-0.0133,-0.0131,-0.017,-0.0173,-0.0131,-0.0131,-0.0131,0,0.015,0.0181,0.0152,0.0173,0.0176,0.0126,0.0153,0.0129,0.0093,0.0085,0.0055,-0.0018,-0.0063,-0.0083,-0.0079,-0.0107,-0.0143,-0.0104,-0.0126,-0.0126,-0.0126,-0.0166,-0.017,-0.0127,-0.0128,-0.0128,-0.0128,0,0.0211,0.0231,0.0246,0.0258,0.0255,0.0271,0.024,0.0232,0.02,0.017,0.0138,0.0069,0.0027,0.0003,-0.0033,-0.0052,-0.0079,-0.0113,-0.0139,-0.0118,-0.0162,-0.0168,-0.0122,-0.0123,-0.0124,-0.0125,0,0,0.0259,0.0287,0.029,0.0315,0.0305,0.0314,0.0319,0.0313,0.0322,0.0261,0.0262,0.0189,0.0141,0.0112,0.0054,0.0008,-0.0027,-0.0044,-0.0049,-0.0074,-0.0133,-0.0156,-0.0166,-0.0069,-0.0069,-0.007,-0.0161,0,0.0316,0.0383,0.0375,0.0432,0.0466,0.0429,0.0443,0.0424,0.0389,0.0375,0.029,0.0264,0.0185,0.0168,0.0108,0.0009,-0.0039,0.0001,-0.0157,-0.0161,-0.0178,-0.0172,-0.0139,-0.0219,-0.0167,-0.0168,-0.0169,0,0.038,0.042,0.0491,0.0534,0.0545,0.0562,0.0578,0.0584,0.0541,0.0509,0.0453,0.0387,0.0316,0.0243,0.0083,0.0111,0.0002,-0.0083,-0.0089,-0.0141,-0.0196,-0.0234,-0.0232,-0.0179,-0.0179,-0.0178,-0.0177,0,0.0439,0.05,0.0564,0.0578,0.0614,0.0632,0.0644,0.0622,0.065,0.0593,0.0599,0.0484,0.0442,0.0287,0.0109,0.0095,-0.007,-0.0116,-0.024,-0.0243,-0.026,-0.0263,-0.0227,-0.0227,-0.0227,-0.0226,-0.0226,0,0.051,0.056,0.0598,0.0633,0.0713,0.0701,0.0768,0.0752,0.0756,0.0798,0.0674,0.0682,0.045,0.0331,0.0148,-0.0057,-0.0046,-0.0225,-0.0268,-0.0231,-0.023,-0.0234,-0.0233,-0.023,-0.0229,-0.0229,-0.0228,0,0.0568,0.0591,0.067,0.0721,0.0744,0.0796,0.0869,0.0921,0.0895,0.0946,0.094,0.0834,0.0671,0.0437,0.0189,0.001,-0.0194,-0.0271,-0.0205,-0.0239,-0.0343,-0.0337,-0.0418,-0.042,-0.0421,-0.0422,-0.0423,0,0.0606,0.0652,0.0738,0.0794,0.082,0.09,0.0966,0.0984,0.105,0.105,0.1092,0.0959,0.0896,0.0519,0.0173,-0.0151,-0.0195,-0.034,-0.0368,-0.0328,-0.0363,-0.0355,-0.0348,-0.036,-0.036,-0.0361,-0.0361,0,0.0678,0.07,0.0769,0.0889,0.0968,0.1075,0.1167,0.1248,0.1275,0.1322,0.136,0.1314,0.095,0.0633,0.017,-0.0058,-0.029,-0.0357,-0.0337,-0.0312,-0.028,-0.0312,-0.0305,-0.0363,-0.0363,-0.0363,-0.0363,-0.0363,0.0727,0.0788,0.0876,0.0994,0.1094,0.1231,0.1342,0.1446,0.1572,0.1652,0.1581,0.1515,0.1125,0.0554,0.0138,-0.0312,-0.0291,-0.044,-0.0437,-0.0434,-0.0406,-0.0378,-0.0474,-0.0474,-0.0475,-0.0475,-0.0475,0,0.0793,0.0867,0.0979,0.1122,0.125,0.129,0.1472,0.1589,0.1753,0.1804,0.1836,0.148,0.1099,0.0639,-0.0015,-0.0399,-0.0437,-0.0531,-0.048,-0.0474,-0.047,-0.0443,-0.0522,-0.0523,-0.0524,-0.0525,0,0,0.0829,0.0948,0.1011,0.1228,0.1337,0.1526,0.1642,0.1801,0.189,0.1967,0.1927,0.1822,0.1257,0.0785,0.0246,-0.0133,-0.0219,-0.0221,-0.0141,-0.0011,-0.0002,-0.0376,-0.0323,0,0,0,0,0]}],[{"header":{"parameterUnit":"m.s-1","parameterCategory":2,"la1":30.2991,"la2":30.254,"lo1":-89.0895,"lo2":-89.0444,"dy":0.0017,"dx":0.0017,"nx":28,"ny":28,"refTime":"2025-04-05T21:00:00:Z","depth":"4","parameterNumber":2,"parameterNumberName":"U-component_of_CURRENTS"},"data":[0,0,0,0,0,0,0,0,0,0,0,0,0,0,0,0,0,0,0,0,0,0,0,0,0,0,0,0,0,0,0,0,0,0,0,0,0,0,0,0,0,0,0,0,0,0,0,0,0,0,0,0,0,0,0,0,0,0,0.2023,0.2024,0,0.2113,0.2114,0.2115,0.2182,0.2183,0.2184,0.2185,0.2283,0.2285,0.2287,0,0,0,0,0,0,0,0,0,0,0,0,0,0.1903,0.1905,0.2023,0.2024,0.2025,0.2113,0.2114,0.2115,0.2182,0.2183,0.2184,0.2185,0.2283,0.2285,0.2287,0,0,0,0,0,0,0,0,0,0,0,0,0,0.1968,0.1905,0.2022,0.2071,0.2077,0.2113,0.2114,0.2116,0.2182,0.2183,0.2184,0.2186,0.2282,0.2284,0.2287,0.228,0,0,0.2296,0.2297,0,0,0,0,0,0,0,0,0.1964,0.1972,0.2063,0.2068,0.2074,0.214,0.2108,0.2172,0.2182,0.2139,0.2185,0.2186,0.2237,0.2243,0.2254,0.2285,0.2289,0.2296,0.2298,0.2299,0.23,0,0,0,0,0,0,0,0.196,0.1969,0.2056,0.2064,0.2071,0.2087,0.2097,0.212,0.2178,0.2143,0.2149,0.2162,0.224,0.2251,0.2257,0.2291,0.2296,0.2298,0.23,0.2301,0.2451,0.2454,0,0,0,0,0,0,0.1953,0.1965,0.2053,0.2059,0.2024,0.2088,0.21,0.2116,0.2178,0.219,0.2161,0.2165,0.2246,0.2254,0.2261,0.2374,0.2299,0.2302,0.2303,0.2449,0.2452,0.2454,0,0,0,0,0,0,0.195,0.196,0.205,0.2016,0.2029,0.2089,0.2106,0.2117,0.2173,0.2192,0.2204,0.2212,0.2247,0.2257,0.2325,0.2373,0.2303,0.2305,0.2446,0.245,0.2453,0.2524,0,0,0,0,0,0,0.1946,0.1958,0.1986,0.2015,0.203,0.21,0.2106,0.2118,0.2178,0.2185,0.2238,0.2246,0.2249,0.2321,0.2328,0.2376,0.2308,0.2443,0.2448,0.2452,0.2519,0.253,0.2539,0,0,0,0,0,0.1941,0.1967,0.1987,0.1999,0.2061,0.2101,0.2111,0.2156,0.2179,0.221,0.2253,0.2247,0.2354,0.2326,0.2333,0.2383,0.2441,0.2447,0.2452,0.2514,0.2527,0.2539,0,0,0,0,0,0,0.1931,0.1978,0.2,0.2041,0.2083,0.2114,0.2154,0.218,0.2237,0.226,0.2274,0.2285,0.2364,0.2365,0.2333,0.244,0.2398,0.2404,0.2443,0.2455,0.2465,0.2468,0.231,0,0,0,0,0,0.194,0.1979,0.2018,0.2058,0.2082,0.2126,0.2157,0.2188,0.2232,0.2261,0.2298,0.2342,0.2382,0.2413,0.2445,0.2501,0.2504,0.254,0.255,0.2558,0.2568,0.2609,0.2624,0.2471,0.2471,0.2471,0,0,0.1948,0.1981,0.2004,0.206,0.2099,0.2141,0.215,0.221,0.2257,0.2261,0.235,0.238,0.2406,0.2473,0.2508,0.2486,0.2606,0.2565,0.2572,0.2576,0.2616,0.2631,0.2644,0.2475,0.2474,0.2474,0,0,0.1968,0.2014,0.205,0.2089,0.2156,0.2181,0.2208,0.2267,0.2312,0.2386,0.2407,0.2469,0.253,0.256,0.2579,0.2664,0.2657,0.2681,0.2737,0.2778,0.279,0.2801,0.2831,0.2844,0.2687,0.2687,0.2687,0,0.198,0.2027,0.2068,0.2111,0.2153,0.2204,0.2251,0.2299,0.2376,0.2419,0.2429,0.2544,0.2569,0.2647,0.2683,0.2687,0.2706,0.2686,0.279,0.2801,0.2811,0.2838,0.2852,0.2691,0.2691,0.269,0.269,0,0.2013,0.2069,0.2097,0.2169,0.2218,0.227,0.2333,0.2397,0.2456,0.25,0.2606,0.2644,0.2711,0.2733,0.2737,0.2829,0.2819,0.2795,0.2755,0.283,0.2855,0.2868,0.2697,0.2695,0.2694,0.2693,0,0,0.1987,0.2098,0.2113,0.2159,0.2256,0.2294,0.2385,0.247,0.2537,0.2619,0.2705,0.2785,0.2817,0.2842,0.2862,0.2903,0.2993,0.2891,0.2891,0.2912,0.3089,0.2914,0.291,0.2992,0.2994,0.2996,0.308,0,0.2005,0.2089,0.2146,0.2237,0.2284,0.2365,0.2441,0.2531,0.261,0.2704,0.277,0.2859,0.2855,0.2904,0.2948,0.2988,0.303,0.2973,0.302,0.3021,0.2849,0.292,0.3004,0.3089,0.3092,0.3094,0.3095,0,0.2009,0.2071,0.2159,0.2276,0.2307,0.2373,0.2504,0.258,0.2713,0.2781,0.2879,0.2932,0.3036,0.3008,0.3114,0.3083,0.31,0.3113,0.3116,0.2934,0.2868,0.2998,0.3118,0.3116,0.3114,0.3113,0.3112,0,0.1953,0.2076,0.2149,0.219,0.2327,0.2395,0.2476,0.2609,0.2694,0.2842,0.2921,0.3027,0.311,0.315,0.32,0.3172,0.3294,0.3247,0.3102,0.309,0.3191,0.3178,0.3311,0.3311,0.331,0.331,0.331,0,0.1925,0.1989,0.2136,0.2173,0.2272,0.238,0.2497,0.2592,0.2746,0.2836,0.2963,0.304,0.3155,0.3234,0.3242,0.3216,0.3331,0.3124,0.3102,0.322,0.3209,0.32,0.3186,0.3313,0.3313,0.3312,0.3311,0,0.1844,0.1942,0.2032,0.2189,0.2247,0.2318,0.2508,0.2579,0.2744,0.2866,0.2926,0.3098,0.3185,0.3271,0.3349,0.326,0.3255,0.3215,0.3359,0.3342,0.3011,0.3001,0.3044,0.3039,0.3034,0.303,0.3027,0,0.1804,0.1845,0.2022,0.2078,0.2156,0.2286,0.2367,0.2556,0.2629,0.2863,0.2898,0.307,0.3152,0.3128,0.3225,0.3232,0.3193,0.3169,0.3061,0.3011,0.2987,0.2983,0.2978,0.302,0.3019,0.3017,0.3016,0,0.1724,0.1804,0.1878,0.1994,0.2092,0.2187,0.2317,0.2364,0.2559,0.2742,0.2802,0.2856,0.2955,0.3003,0.3049,0.3042,0.3167,0.3119,0.3127,0.3026,0.2982,0.2961,0.2962,0.3,0.3002,0.3004,0.3005,0,0.1664,0.1691,0.1798,0.1883,0.1998,0.2042,0.2134,0.2218,0.2323,0.2568,0.2579,0.2753,0.2915,0.2907,0.2941,0.2934,0.2874,0.2762,0.2787,0.2806,0.2689,0.2595,0.2486,0,0,0,0,0,0.1591,0.1607,0.1677,0.1755,0.186,0.1924,0.2076,0.2167,0.2359,0.2335,0.2452,0.2522,0.2584,0.2682,0.2624,0.2839,0.2889,0.276,0.2773,0.2911,0.293,0.2814,0,0,0,0,0,0,0.154,0.16,0.1627,0.1629,0.1654,0.1747,0.1833,0.1962,0.1961,0.2164,0.2212,0.2368,0.2469,0.2585,0.2573,0.2602,0.2558,0.2877,0.2871,0.2901,0.2917,0.2932,0.282,0,0,0,0,0]},{"header":{"parameterUnit":"m.s-1","parameterCategory":2,"la1":30.2991,"la2":30.254,"lo1":-89.0895,"lo2":-89.0444,"dy":0.0017,"dx":0.0017,"nx":28,"ny":28,"refTime":"2025-04-05T21:00:00:Z","depth":"4","parameterNumber":3,"parameterNumberName":"V-component_of_CURRENTS"},"data":[0,0,0,0,0,0,0,0,0,0,0,0,0,0,0,0,0,0,0,0,0,0,0,0,0,0,0,0,0,0,0,0,0,0,0,0,0,0,0,0,0,0,0,0,0,0,0,0,0,0,0,0,0,0,0,0,0,0,0.0141,0.014,0,0.0091,0.0091,0.009,0.0057,0.0057,0.0057,0.0057,-0.0013,-0.0015,-0.0017,0,0,0,0,0,0,0,0,0,0,0,0,0,0.0153,0.0153,0.0141,0.014,0.014,0.0091,0.009,0.009,0.0057,0.0057,0.0057,0.0057,-0.0012,-0.0015,-0.0017,0,0,0,0,0,0,0,0,0,0,0,0,0,0.0128,0.0153,0.0141,0.0119,0.0117,0.0092,0.009,0.0089,0.0057,0.0057,0.0057,0.0057,-0.0012,-0.0014,-0.0017,-0.0032,0,0,-0.0025,-0.0027,0,0,0,0,0,0,0,0,0.013,0.0128,0.0123,0.0121,0.0118,0.0082,0.0069,0.0048,0.0057,0.0078,0.0057,0.0057,0.0018,0.0013,0.0001,-0.0035,-0.0038,-0.0026,-0.0027,-0.0028,-0.0029,0,0,0,0,0,0,0,0.0132,0.0129,0.0119,0.0122,0.0119,0.0093,0.009,0.0065,0.0047,0.0076,0.0074,0.0071,0.0016,0.0004,-0.0,-0.0039,-0.0026,-0.0028,-0.003,-0.0031,-0.0094,-0.0094,0,0,0,0,0,0,0.0144,0.0131,0.0121,0.0118,0.0126,0.0093,0.009,0.0092,0.0048,0.0042,0.0071,0.007,0.0009,0.0003,-0.0003,-0.0011,-0.0028,-0.0031,-0.0033,-0.0094,-0.0094,-0.0094,0,0,0,0,0,0,0.0145,0.0144,0.0123,0.0124,0.012,0.0094,0.0096,0.0091,0.0082,0.0045,0.0038,0.0069,0.0009,0.0001,-0.0019,-0.0014,-0.0032,-0.0035,-0.0094,-0.0094,-0.0094,-0.0034,0,0,0,0,0,0,0.0145,0.0145,0.015,0.0126,0.0121,0.0116,0.0097,0.009,0.0081,0.0079,0.004,0.0033,0.0008,-0.0015,-0.0022,-0.0018,-0.0037,-0.0093,-0.0094,-0.0094,-0.0036,-0.0032,-0.0029,0,0,0,0,0,0.0146,0.0159,0.0151,0.0149,0.013,0.0117,0.0112,0.0091,0.0082,0.0082,0.0055,0.0035,-0.0021,-0.0017,-0.0025,-0.0022,-0.0093,-0.0094,-0.0094,-0.0038,-0.0033,-0.0029,0,0,0,0,0,0,0.0166,0.0156,0.0147,0.0155,0.014,0.0112,0.0112,0.0096,0.0075,0.0074,0.0036,0.0027,0.001,-0.0015,-0.001,-0.0042,-0.0062,-0.0063,-0.0016,-0.0012,-0.0009,0.0014,-0.0039,0,0,0,0,0,0.0173,0.0181,0.0162,0.0168,0.0165,0.0138,0.013,0.0118,0.0096,0.0087,0.0059,0.0028,0.0002,-0.0011,-0.0039,-0.0053,-0.0084,-0.0058,-0.0055,-0.0051,-0.004,-0.0087,-0.0086,-0.0094,-0.0094,-0.0094,0,0,0.0182,0.0178,0.0181,0.0173,0.0159,0.0164,0.0133,0.0129,0.0131,0.0082,0.0075,0.004,-0.0,-0.0017,-0.0027,-0.0035,-0.0066,-0.0051,-0.0048,-0.0038,-0.0087,-0.0086,-0.0085,-0.0094,-0.0094,-0.0094,0,0,0.0208,0.0201,0.0217,0.021,0.0199,0.0185,0.0187,0.0164,0.0151,0.0138,0.0103,0.0075,0.0035,0.0008,-0.0011,-0.0005,-0.0047,-0.0018,0.0021,-0.0025,-0.0024,-0.0024,-0.0061,-0.0065,-0.0014,-0.0014,-0.0014,0,0.0218,0.0239,0.0218,0.0232,0.0235,0.02,0.0219,0.02,0.0172,0.0166,0.0146,0.0084,0.0049,0.0028,0.0029,0.0005,-0.0026,0.0011,-0.0019,-0.0019,-0.002,-0.0058,-0.0063,-0.0011,-0.0011,-0.0012,-0.0012,0,0.0257,0.0274,0.0283,0.0293,0.0289,0.03,0.0278,0.0271,0.0249,0.0226,0.0198,0.0143,0.011,0.0088,0.0061,0.0038,0.0017,-0.0009,-0.0025,-0.0016,-0.0057,-0.0063,-0.0007,-0.0008,-0.0009,-0.001,0,0,0.0285,0.0309,0.0313,0.0334,0.0326,0.0332,0.0335,0.0329,0.0338,0.0289,0.029,0.0228,0.0192,0.0168,0.0122,0.0081,0.0043,0.004,0.0036,0.0013,-0.0054,-0.0061,-0.0069,0.001,0.0009,0.0008,-0.0079,0,0.0325,0.0374,0.037,0.0414,0.0439,0.0416,0.0426,0.0412,0.0386,0.0374,0.0306,0.0286,0.0224,0.0211,0.0158,0.0075,0.003,0.007,-0.0067,-0.0071,-0.0071,-0.0075,0.0006,-0.0084,-0.0086,-0.0087,-0.0087,0,0.0367,0.0397,0.0452,0.049,0.0499,0.0516,0.0531,0.0536,0.0502,0.0479,0.0434,0.0382,0.032,0.0265,0.0124,0.0151,0.0059,-0.0014,-0.0019,-0.0047,-0.0088,-0.0099,-0.0099,-0.0098,-0.0097,-0.0096,-0.0096,0,0.0405,0.0455,0.0506,0.0518,0.055,0.057,0.0583,0.0568,0.059,0.0548,0.0553,0.0455,0.0421,0.0289,0.0138,0.0131,-0.002,-0.0053,-0.0149,-0.015,-0.0143,-0.0143,-0.0153,-0.0153,-0.0153,-0.0152,-0.0152,0,0.0449,0.0492,0.0532,0.056,0.0628,0.0624,0.0684,0.0673,0.0679,0.071,0.0615,0.061,0.0425,0.0318,0.0166,-0.0005,-0.0005,-0.0137,-0.0173,-0.0117,-0.0112,-0.0148,-0.0146,-0.0156,-0.0155,-0.0154,-0.0154,0,0.0482,0.0508,0.0573,0.0624,0.065,0.0695,0.0767,0.0808,0.0796,0.0831,0.0828,0.073,0.0583,0.0393,0.0179,0.0046,-0.0125,-0.0188,-0.0102,-0.0132,-0.0232,-0.0226,-0.03,-0.0301,-0.0302,-0.0302,-0.0303,0,0.0503,0.054,0.0624,0.0674,0.0704,0.0778,0.0837,0.0861,0.0907,0.0904,0.0926,0.081,0.0715,0.0422,0.02,-0.0092,-0.014,-0.0232,-0.0246,-0.022,-0.0247,-0.024,-0.0234,-0.0304,-0.0304,-0.0305,-0.0305,0,0.0542,0.0571,0.0628,0.0734,0.0809,0.0901,0.098,0.1026,0.1052,0.1049,0.1014,0.0858,0.069,0.0439,0.0211,-0.0002,-0.0175,-0.0241,-0.0242,-0.0255,-0.0226,-0.0251,-0.0243,-0.0308,-0.0307,-0.0307,-0.0307,0,0.0571,0.0617,0.0695,0.079,0.0891,0.0988,0.1029,0.1084,0.1129,0.1116,0.1101,0.091,0.0798,0.0486,0.0276,0.0064,0.0001,-0.0077,-0.0087,-0.0087,-0.0009,0.006,0.0042,0,0,0,0,0,0.0596,0.0655,0.0746,0.0853,0.0956,0.102,0.1113,0.1144,0.1172,0.1162,0.1135,0.0976,0.0665,0.0535,0.0324,0.0238,-0.005,-0.002,-0.0147,-0.0323,-0.032,-0.0267,0,0,0,0,0,0,0.0613,0.07,0.0749,0.089,0.0974,0.1095,0.1157,0.1177,0.1172,0.1161,0.1008,0.092,0.0625,0.0795,0.0322,0.0256,0.0143,-0.0165,-0.017,-0.0325,-0.0322,-0.032,-0.0264,0,0,0,0,0]}]]